Time,TemperatureF,DewpointF,PressureIn,WindDirection,WindDirectionDegrees,WindSpeedMPH,WindSpeedGustMPH,Humidity,HourlyPrecipIn,Conditions,Clouds,dailyrainin,SoftwareType,DateUTC
2016-09-30 00:04:00,73.0,41.0,30.09,North,0,0.0,0.0,32,-99.99,,,-99.99,,2016-09-30 07:04:00,
2016-09-30 00:14:00,72.0,44.0,30.09,NW,307,5.0,6.0,36,-99.99,,,-99.99,,2016-09-30 07:14:00,
2016-09-30 00:24:00,72.0,44.0,30.09,NW,307,5.0,-999.0,36,-99.99,,,-99.99,,2016-09-30 07:24:00,
2016-09-30 00:34:00,71.0,46.0,30.09,WNW,289,5.0,7.0,41,-99.99,,,-99.99,,2016-09-30 07:34:00,
2016-09-30 00:43:00,70.0,47.0,30.09,WNW,291,0.0,0.0,44,-99.99,,,-99.99,,2016-09-30 07:43:00,
2016-09-30 00:54:00,70.0,47.0,30.09,WNW,291,0.0,0.0,44,-99.99,,,-99.99,,2016-09-30 07:54:00,
2016-09-30 01:05:00,70.0,47.0,30.09,West,261,0.0,-999.0,44,-99.99,,,-99.99,,2016-09-30 08:05:00,
2016-09-30 01:14:00,69.0,48.0,30.09,NW,314,4.0,4.0,47,-99.99,,,-99.99,,2016-09-30 08:14:00,
2016-09-30 01:23:00,69.0,48.0,30.09,NW,314,4.0,4.0,47,-99.99,,,-99.99,,2016-09-30 08:23:00,
2016-09-30 01:33:00,68.0,50.0,30.09,WNW,297,6.0,6.0,52,-99.99,,,-99.99,,2016-09-30 08:33:00,
2016-09-30 01:56:00,67.0,50.0,30.09,WNW,301,3.0,5.0,55,-99.99,,,-99.99,,2016-09-30 08:56:00,
2016-09-30 02:12:00,67.0,50.0,30.09,NW,310,5.0,6.0,55,-99.99,,,-99.99,,2016-09-30 09:12:00,
2016-09-30 02:23:00,67.0,50.0,30.09,NW,310,5.0,6.0,55,-99.99,,,-99.99,,2016-09-30 09:23:00,
2016-09-30 02:56:00,65.0,51.0,30.09,NNW,344,5.0,6.0,60,-99.99,,,-99.99,,2016-09-30 09:56:00,
2016-09-30 03:04:00,65.0,51.0,30.09,NNW,344,5.0,6.0,60,-99.99,,,-99.99,,2016-09-30 10:04:00,
2016-09-30 03:14:00,65.0,51.0,30.09,NNW,339,6.0,7.0,60,-99.99,,,-99.99,,2016-09-30 10:14:00,
2016-09-30 03:26:00,65.0,49.0,30.09,NNW,347,5.0,6.0,57,-99.99,,,-99.99,,2016-09-30 10:26:00,
2016-09-30 03:34:00,65.0,49.0,30.09,NNW,347,5.0,-999.0,57,-99.99,,,-99.99,,2016-09-30 10:34:00,
2016-09-30 03:57:00,64.0,51.0,30.09,North,349,7.0,-999.0,62,-99.99,,,-99.99,,2016-09-30 10:57:00,
2016-09-30 04:04:00,64.0,51.0,30.09,North,349,7.0,9.0,62,-99.99,,,-99.99,,2016-09-30 11:04:00,
2016-09-30 04:13:00,63.0,52.0,30.09,NNW,335,5.0,7.0,68,-99.99,,,-99.99,,2016-09-30 11:13:00,
2016-09-30 04:23:00,63.0,52.0,30.09,NNW,335,5.0,-999.0,68,-99.99,,,-99.99,,2016-09-30 11:23:00,
2016-09-30 04:54:00,62.0,50.0,30.10,NNW,344,4.0,9.0,65,-99.99,,,-99.99,,2016-09-30 11:54:00,
2016-09-30 05:05:00,61.0,50.0,30.10,NNW,337,5.0,7.0,66,-99.99,,,-99.99,,2016-09-30 12:05:00,
2016-09-30 05:13:00,61.0,50.0,30.10,NNW,343,0.0,0.0,66,-99.99,,,-99.99,,2016-09-30 12:13:00,
2016-09-30 05:24:00,61.0,50.0,30.10,NNW,343,0.0,0.0,66,-99.99,,,-99.99,,2016-09-30 12:24:00,
2016-09-30 05:54:00,60.0,50.0,30.10,WNW,287,0.0,5.0,69,-99.99,,,-99.99,,2016-09-30 12:54:00,
2016-09-30 06:04:00,60.0,50.0,30.10,WNW,298,0.0,0.0,70,-99.99,,,-99.99,,2016-09-30 13:04:00,
2016-09-30 06:13:00,59.0,50.0,30.11,WNW,298,0.0,0.0,71,-99.99,,,-99.99,,2016-09-30 13:13:00,
2016-09-30 06:34:00,59.0,50.0,30.11,WNW,298,0.0,0.0,72,-99.99,,,-99.99,,2016-09-30 13:34:00,
2016-09-30 07:06:00,59.0,51.0,30.12,West,272,0.0,0.0,74,-99.99,,,-99.99,,2016-09-30 14:06:00,
2016-09-30 07:13:00,58.0,50.0,30.12,West,280,0.0,0.0,76,-99.99,,,-99.99,,2016-09-30 14:13:00,
2016-09-30 07:23:00,58.0,50.0,30.12,West,280,0.0,0.0,76,-99.99,,,-99.99,,2016-09-30 14:23:00,
2016-09-30 07:34:00,58.0,51.0,30.13,WNW,288,0.0,0.0,77,-99.99,,,-99.99,,2016-09-30 14:34:00,
2016-09-30 07:43:00,58.0,51.0,30.13,WNW,288,0.0,0.0,77,-99.99,,,-99.99,,2016-09-30 14:43:00,
2016-09-30 07:54:00,58.0,51.0,30.13,WNW,288,0.0,0.0,77,-99.99,,,-99.99,,2016-09-30 14:54:00,
2016-09-30 08:05:00,59.0,51.0,30.13,WSW,254,2.0,-999.0,75,-99.99,,,-99.99,,2016-09-30 15:05:00,
2016-09-30 08:12:00,59.0,51.0,30.14,NW,315,6.0,7.0,75,-99.99,,,-99.99,,2016-09-30 15:12:00,
2016-09-30 08:23:00,59.0,51.0,30.14,NW,315,6.0,7.0,75,-99.99,,,-99.99,,2016-09-30 15:23:00,
2016-09-30 09:14:00,62.0,53.0,30.14,NW,319,7.0,8.0,72,-99.99,,,-99.99,,2016-09-30 16:14:00,
2016-09-30 10:05:00,65.0,53.0,30.15,NNE,18,0.0,-999.0,65,-99.99,,,-99.99,,2016-09-30 17:05:00,
2016-09-30 10:26:00,68.0,52.0,30.14,NW,325,2.0,7.0,57,-99.99,,,-99.99,,2016-09-30 17:26:00,
2016-09-30 10:37:00,68.0,52.0,30.14,NW,325,2.0,7.0,57,-99.99,,,-99.99,,2016-09-30 17:37:00,
2016-09-30 11:04:00,71.0,52.0,30.14,NNW,331,6.0,8.0,51,-99.99,,,-99.99,,2016-09-30 18:04:00,
2016-09-30 11:13:00,72.0,51.0,30.13,NW,314,6.0,7.0,47,-99.99,,,-99.99,,2016-09-30 18:13:00,
2016-09-30 11:34:00,73.0,50.0,30.13,NNW,348,5.0,10.0,45,-99.99,,,-99.99,,2016-09-30 18:34:00,
2016-09-30 12:24:00,75.0,48.0,30.11,North,358,8.0,12.0,38,-99.99,,,-99.99,,2016-09-30 19:24:00,
2016-09-30 12:34:00,77.0,49.0,30.11,NNW,338,7.0,9.0,37,-99.99,,,-99.99,,2016-09-30 19:34:00,
2016-09-30 12:44:00,77.0,48.0,30.11,NW,318,8.0,10.0,36,-99.99,,,-99.99,,2016-09-30 19:44:00,
2016-09-30 12:54:00,77.0,48.0,30.11,NW,318,8.0,10.0,36,-99.99,,,-99.99,,2016-09-30 19:54:00,
2016-09-30 13:04:00,78.0,47.0,30.10,NW,325,7.0,11.0,34,-99.99,,,-99.99,,2016-09-30 20:04:00,
2016-09-30 13:14:00,79.0,48.0,30.10,NNW,340,7.0,10.0,34,-99.99,,,-99.99,,2016-09-30 20:14:00,
2016-09-30 13:23:00,79.0,48.0,30.10,NNW,340,7.0,10.0,34,-99.99,,,-99.99,,2016-09-30 20:23:00,
2016-09-30 13:45:00,80.0,47.0,30.09,NW,319,8.0,-999.0,32,-99.99,,,-99.99,,2016-09-30 20:45:00,
2016-09-30 13:54:00,80.0,47.0,30.09,NW,319,8.0,10.0,32,-99.99,,,-99.99,,2016-09-30 20:54:00,
2016-09-30 14:04:00,81.0,47.0,30.08,NW,304,8.0,11.0,31,-99.99,,,-99.99,,2016-09-30 21:04:00,
2016-09-30 14:13:00,81.0,47.0,30.07,NNW,334,8.0,9.0,31,-99.99,,,-99.99,,2016-09-30 21:13:00,
2016-09-30 14:23:00,81.0,47.0,30.07,NNW,334,8.0,9.0,31,-99.99,,,-99.99,,2016-09-30 21:23:00,
2016-09-30 14:35:00,82.0,47.0,30.06,North,354,4.0,-999.0,30,-99.99,,,-99.99,,2016-09-30 21:35:00,
2016-09-30 14:57:00,82.0,46.0,30.06,North,349,10.0,13.0,28,-99.99,,,-99.99,,2016-09-30 21:57:00,
2016-09-30 15:04:00,82.0,46.0,30.06,North,349,10.0,-999.0,28,-99.99,,,-99.99,,2016-09-30 22:04:00,
2016-09-30 15:15:00,83.0,46.0,30.05,NNW,345,6.0,11.0,27,-99.99,,,-99.99,,2016-09-30 22:15:00,
2016-09-30 15:22:00,83.0,46.0,30.05,North,-9999,-999.9,-999.0,27,-99.99,,,-99.99,,2016-09-30 22:22:00,
2016-09-30 16:14:00,83.0,42.0,30.04,WNW,303,8.0,13.0,24,-99.99,,,-99.99,,2016-09-30 23:14:00,
2016-09-30 16:24:00,83.0,42.0,30.04,WNW,303,8.0,-999.0,24,-99.99,,,-99.99,,2016-09-30 23:24:00,
2016-09-30 17:04:00,81.0,45.0,30.03,WNW,288,10.0,13.0,28,-99.99,,,-99.99,,2016-10-01 00:04:00,
2016-09-30 17:13:00,81.0,44.0,30.03,West,279,11.0,-999.0,27,-99.99,,,-99.99,,2016-10-01 00:13:00,
2016-09-30 17:23:00,81.0,44.0,30.03,West,279,11.0,13.0,27,-99.99,,,-99.99,,2016-10-01 00:23:00,
2016-09-30 17:34:00,80.0,47.0,30.03,WNW,285,11.0,15.0,32,-99.99,,,-99.99,,2016-10-01 00:34:00,
2016-09-30 17:43:00,79.0,50.0,30.03,WNW,288,13.0,17.0,36,-99.99,,,-99.99,,2016-10-01 00:43:00,
2016-09-30 17:54:00,79.0,50.0,30.03,WNW,288,13.0,17.0,36,-99.99,,,-99.99,,2016-10-01 00:54:00,
2016-09-30 18:04:00,78.0,50.0,30.03,WNW,284,12.0,16.0,38,-99.99,,,-99.99,,2016-10-01 01:04:00,
2016-09-30 18:13:00,77.0,51.0,30.04,WNW,287,13.0,15.0,40,-99.99,,,-99.99,,2016-10-01 01:13:00,